Weather History for KISP - July, 2013

Change the Weather History Date:

Friday, July 26, 2013

  Actual Average Record
Temperature  
Mean Temperature 71 °F 74 °F  
Max Temperature 79 °F 82 °F 93 °F (2005)
Min Temperature 62 °F 67 °F 57 °F (2002)
Degree Days  
Heating Degree Days 0 0  
Month to date heating degree days 0 0  
Since 1 June heating degree days 12 38  
Since 1 July heating degree days 0 0  
Cooling Degree Days 6 9  
Month to date cooling degree days 368 227  
Year to date cooling degree days 569 391  
Since 1 June cooling degree days 537 367  
Growing Degree Days 20 (Base 50)    
Moisture  
Dew Point 61 °F    
Average Humidity 74    
Maximum Humidity 93    
Minimum Humidity 54    
Precipitation  
Precipitation 0.12 in 0.12 in 2.41 in (2000)
Month to date precipitation 2.33 2.82  
Year to date precipitation 25.83 26.55  
Snow  
Snow 0.00 in 0.00 in - ()
Month to date snowfall 0.0 0.0  
Since 1 July snowfall 0.0 0.0  
Snow Depth 0.00 in    
Sea Level Pressure  
Sea Level Pressure 29.99 in    
Wind  
Wind Speed 9 mph (NNW)    
Max Wind Speed 20 mph    
Max Gust Speed 24 mph    
Visibility 9 miles    
Events Rain    
T = Trace of Precipitation, MM = Missing Value Source: NWS Daily Summary

Daily Weather History Graph

Daily Weather History Graph

Search for Another Location

Airport or City:

Trip Planner

Search our weather history database for the weather conditions in past years. The results will help you decide how hot, cold, wet, or windy it might be!

Date:

Astronomy

Jul. 26, 2013 Rise Set
Actual Time 5:43 AM EDT 8:13 PM EDT
Civil Twilight 5:12 AM EDT 8:45 PM EDT
Nautical Twilight 4:33 AM EDT 9:23 PM EDT
Astronomical Twilight 3:49 AM EDT 10:07 PM EDT
Moon 10:24 PM EDT (7/26) 10:18 AM EDT (7/26)
Length of Visible Light 15h 33m
Length of Day
14h 30m
Waning Gibbous, 80% of the Moon is Illuminated
Jul 26
Waning Gibbous
Jul 29
Last Quarter
Aug 6
New
Aug 14
First Quarter
Aug 20
Full

Hourly Weather History & Observations

Time (EDT) Temp. Dew Point Humidity Pressure Visibility Wind Dir Wind Speed Gust Speed Precip Events Conditions
12:45 AM 62.6 °F 59.0 °F 88% 30.00 in 9.0 mi NNE 9.2 mph - 0.04 in Rain Light Rain
12:56 AM 62.1 °F 59.0 °F 90% 29.99 in 9.0 mi NNE 9.2 mph - 0.06 in Rain Light Rain
1:07 AM 62.6 °F 59.0 °F 88% 29.99 in 10.0 mi NE 9.2 mph - 0.01 in Rain Light Rain
1:52 AM 62.6 °F 59.0 °F 88% 29.98 in 10.0 mi NNE 10.4 mph - 0.02 in   Overcast
1:56 AM 62.1 °F 59.0 °F 90% 29.98 in 10.0 mi NNE 11.5 mph - 0.02 in   Overcast
3:56 AM 63.0 °F 60.1 °F 90% 29.96 in 10.0 mi NNW 10.4 mph - 0.04 in Rain Light Rain
4:47 AM 62.6 °F 60.8 °F 94% 29.94 in 10.0 mi NNE 11.5 mph - 0.01 in   Mostly Cloudy
4:56 AM 63.0 °F 60.1 °F 90% 29.95 in 10.0 mi North 9.2 mph - 0.01 in   Mostly Cloudy
5:02 AM 62.6 °F 60.8 °F 94% 29.95 in 10.0 mi North 8.1 mph - N/A   Mostly Cloudy
5:56 AM 63.0 °F 60.1 °F 90% 29.97 in 10.0 mi NNW 12.7 mph - 0.00 in Rain Light Rain
6:24 AM 62.6 °F 60.8 °F 94% 29.96 in 10.0 mi North 13.8 mph 24.2 mph 0.00 in Rain Light Rain
6:48 AM 62.6 °F 60.8 °F 94% 29.97 in 2.5 mi North 9.2 mph - 0.00 in Rain Light Rain
6:56 AM 63.0 °F 60.1 °F 90% 29.97 in 2.5 mi North 10.4 mph - 0.01 in Rain Light Rain
7:14 AM 62.6 °F 60.8 °F 94% 29.98 in 6.0 mi North 10.4 mph - 0.00 in Rain Light Rain
7:56 AM 63.0 °F 61.0 °F 93% 29.99 in 6.0 mi North 9.2 mph - 0.00 in Rain Light Rain
8:56 AM 64.9 °F 62.1 °F 90% 29.99 in 10.0 mi North 9.2 mph - 0.00 in   Overcast
9:56 AM 66.0 °F 62.1 °F 87% 30.00 in 10.0 mi North 9.2 mph - N/A   Overcast
10:56 AM 66.9 °F 62.1 °F 84% 30.00 in 10.0 mi North 8.1 mph - N/A   Overcast
11:56 AM 70.0 °F 61.0 °F 73% 30.01 in 10.0 mi NW 10.4 mph - N/A   Overcast
12:28 PM 69.8 °F 60.8 °F 73% 30.01 in 10.0 mi NNW 11.5 mph - N/A   Overcast
12:56 PM 71.1 °F 62.1 °F 73% 30.01 in 10.0 mi NW 10.4 mph - N/A   Overcast
1:56 PM 72.0 °F 62.1 °F 71% 30.01 in 10.0 mi NNW 8.1 mph - N/A   Mostly Cloudy
2:56 PM 75.9 °F 63.0 °F 64% 30.00 in 10.0 mi NNW 9.2 mph - N/A   Mostly Cloudy
3:56 PM 75.0 °F 62.1 °F 64% 30.00 in 10.0 mi NNW 5.8 mph - N/A   Mostly Cloudy
4:56 PM 78.1 °F 61.0 °F 56% 29.99 in 10.0 mi NW 8.1 mph - N/A   Mostly Cloudy
5:56 PM 77.0 °F 63.0 °F 62% 29.99 in 10.0 mi WSW 4.6 mph - N/A   Scattered Clouds
6:56 PM 73.9 °F 63.0 °F 68% 30.00 in 10.0 mi SW 10.4 mph - N/A   Scattered Clouds
7:56 PM 72.0 °F 62.1 °F 71% 30.01 in 10.0 mi SSW 9.2 mph - N/A   Scattered Clouds
8:56 PM 70.0 °F 64.0 °F 81% 30.02 in 10.0 mi SSW 6.9 mph - N/A   Partly Cloudy
9:56 PM 69.1 °F 64.9 °F 87% 30.04 in 10.0 mi SW 8.1 mph - N/A   Partly Cloudy
10:56 PM 69.1 °F 64.9 °F 87% 30.04 in 10.0 mi SW 9.2 mph - N/A   Partly Cloudy
11:56 PM 69.1 °F 66.0 °F 90% 30.05 in 10.0 mi SSW 8.1 mph - N/A   Scattered Clouds